Location: Antioch Baptist Church
(32.6696°N, 85.7327°W)
Time: 20:35:19
(UTC+00:00)

Cosmos 1092 Rocket - Pass Details

Date: 14 July 2020
Orbit: 954 x 995 km, 83.0° (Epoch: 13 August)

Event Time Altitude Azimuth Distance (km) Brightness Sun altitude
Rises 09:54:17 0° 353° (N) 3,713 7.4 -10.2°
Reaches altitude 10° 09:56:49 10° 353° (N) 2,758 6.7 -9.7°
Maximum altitude 10:03:10 87° 265° (W) 991 4.1 -8.6°
Drops below altitude 10° 10:09:25 10° 177° (S) 2,720 6.1 -7.5°
Sets 10:11:54 0° 177° (S) 3,658 6.7 -7.1°
